Location: Rancho Del Sol Observatory
(38.7214°N, 120.6350°W)
Time: 04:46:17
(UTC-08:00)

Vanguard 1 - All Passes

Search period start: 19 January 2020 00:00
Search period end: 29 January 2020 00:00
Orbit: 651 x 3832 km, 34.2° (Epoch: 18 January)

Date Brightness Start Highest point End Pass type
(mag) Time Alt. Az. Time Alt. Az. Time Alt. Az.
19 Jan - 01:19:07 10° WSW 01:28:20 24° SSW 01:41:38 10° SSE visible
19 Jan - 16:23:20 10° S 16:25:30 13° SSE 16:27:47 10° ESE daylight
19 Jan - 18:40:03 10° WSW 18:44:38 49° SSE 18:51:33 10° E visible
19 Jan - 20:58:51 10° W 21:04:57 60° S 21:15:59 10° ESE visible
19 Jan - 23:18:28 10° W 23:26:35 39° SSW 23:40:35 10° SE night (unlit)
20 Jan - 01:41:49 10° WSW 01:49:38 17° SSW 01:59:54 10° S visible
20 Jan - 16:42:51 10° SSW 16:46:08 20° SSE 16:49:47 10° ESE daylight
20 Jan - 19:00:45 10° WSW 19:05:29 56° S 19:12:51 10° E visible
20 Jan - 21:19:43 10° W 21:25:58 54° S 21:37:14 10° ESE visible
20 Jan - 23:39:46 10° W 23:47:46 32° SSW 00:00:50 10° SSE night (unlit)
21 Jan - 02:06:50 10° SW 02:10:59 11° SW 02:15:40 10° SSW visible
21 Jan - 17:03:00 10° SW 17:06:49 28° SSE 17:11:14 10° E daylight
21 Jan - 19:21:30 10° WSW 19:26:22 59° S 19:34:07 10° E visible
21 Jan - 21:40:37 10° W 21:47:00 47° SSW 21:58:19 10° SE visible
22 Jan - 00:01:22 10° WSW 00:08:59 25° SSW 00:20:33 10° SSE night (unlit)
22 Jan - 17:23:28 10° SW 17:27:33 37° SSE 17:32:30 10° E daylight
22 Jan - 19:42:19 10° W 19:47:18 58° S 19:55:23 10° ESE visible
22 Jan - 22:01:38 10° W 22:08:04 39° SSW 22:19:08 10° SE visible
23 Jan - 00:23:33 10° WSW 00:30:15 18° SSW 00:39:27 10° S night (unlit)
23 Jan - 15:26:26 10° S 15:28:59 14° SSE 15:31:26 10° ESE daylight
23 Jan - 17:44:07 10° WSW 17:48:20 45° SSE 17:53:42 10° E visible
23 Jan - 20:03:09 10° W 20:08:14 53° S 20:16:35 10° ESE visible
23 Jan - 22:22:47 10° W 22:29:10 32° SSW 22:39:38 10° SE night (unlit)
24 Jan - 00:47:14 10° SW 00:51:33 12° SSW 00:56:39 10° S night (unlit)
24 Jan - 15:46:12 10° SSW 15:49:45 21° SSE 15:53:10 10° ESE daylight
24 Jan - 18:04:52 10° WSW 18:09:11 51° S 18:14:50 10° E visible
24 Jan - 20:24:03 10° W 20:29:12 46° S 20:37:39 10° ESE visible
24 Jan - 22:44:11 10° WSW 22:50:18 25° SSW 22:59:39 10° SSE night (unlit)
25 Jan - 16:06:30 10° SW 16:10:31 29° SSE 16:14:27 10° E daylight
25 Jan - 18:25:41 10° WSW 18:30:03 53° S 18:35:58 10° ESE visible
25 Jan - 20:44:59 10° W 20:50:10 39° SSW 20:58:32 10° SE visible
25 Jan - 23:06:05 10° WSW 23:11:29 18° SSW 23:18:59 10° SSE night (unlit)
26 Jan - 14:09:24 10° S 14:11:39 12° SSE 14:13:40 10° SE daylight
26 Jan - 16:27:04 10° SW 16:31:20 37° SSE 16:35:35 10° E daylight
26 Jan - 18:46:32 10° W 18:50:56 51° S 18:57:03 10° ESE visible
26 Jan - 21:06:04 10° WSW 21:11:11 31° SSW 21:19:08 10° SE visible
26 Jan - 23:29:11 10° SW 23:32:42 12° SSW 23:36:56 10° S night (unlit)
27 Jan - 14:28:42 10° SSW 14:32:32 18° SSE 14:35:45 10° ESE daylight
27 Jan - 16:47:49 10° WSW 16:52:09 45° S 16:56:38 10° E daylight
27 Jan - 19:07:24 10° W 19:11:49 46° S 19:18:04 10° ESE visible
27 Jan - 21:27:21 10° WSW 21:32:13 24° SSW 21:39:23 10° SSE visible
28 Jan - 14:48:49 10° SW 14:53:24 25° SSE 14:57:08 10° ESE daylight
28 Jan - 17:08:39 10° WSW 17:12:59 49° S 17:17:38 10° E daylight
28 Jan - 19:28:20 10° W 19:32:44 38° SSW 19:38:57 10° SE visible
28 Jan - 21:49:02 10° WSW 21:53:17 18° SSW 21:59:01 10° SSE visible
